FW8774 Weather Reports


time (UTC)temp
F
wind
direction
speed
knots
gust
knots
rain 1hr
in
rain 24hr
in
rain mn
in
humidity
%
barometer
mb
20260903011528 85 218 4.3 7.8 0.00 0.00 0.00 78 1016.3
20260903011022 86 211 4.3 7.8 0.00 0.00 0.00 77 1016.2
20260903010747 86 216 4.3 7.8 0.00 0.00 0.00 77 1016.2
20260903010009 86 219 4.3 7.8 0.00 0.00 0.00 77 1016.1
20260903005505 86 217 4.3 7.0 0.00 0.00 0.00 77 1016.0
20260903004958 86 217 5.2 7.8 0.00 0.00 0.00 76 1016.0
20260903004452 86 208 4.3 7.8 0.00 0.00 0.00 76 1016.1
20260903004217 86 228 3.5 7.8 0.00 0.00 0.00 77 1015.9
20260903003440 86 213 3.5 6.1 0.00 0.00 0.00 77 1015.9
20260903002934 87 213 3.5 6.1 0.00 0.00 0.00 77 1015.9
20260903002428 87 221 3.5 7.0 0.00 0.00 0.00 76 1015.8
20260903001922 87 219 4.3 7.8 0.00 0.00 0.00 75 1015.8
20260903001420 87 221 4.3 7.8 0.00 0.00 0.00 75 1016.0
20260903000918 87 224 4.3 7.8 0.00 0.00 0.00 74 1015.9
20260903000418 88 226 5.2 7.8 0.00 0.00 0.00 73 1015.9
20260903000148 88 217 4.3 7.8 0.00 0.00 0.00 73 1015.9
20260902235416 88 228 5.2 7.8 0.00 0.00 0.00 72 1015.9
20260902234914 88 234 5.2 8.7 0.00 0.00 0.00 72 1016.0
20260902234414 89 225 5.2 10.4 0.00 0.00 0.00 71 1015.9
20260902233914 89 234 5.2 10.4 0.00 0.00 0.00 71 1015.9
20260902233414 89 233 6.1 10.4 0.00 0.00 0.00 70 1015.8
20260902232914 89 248 6.1 12.2 0.00 0.00 0.00 70 1015.9
20260902232414 89 234 6.1 12.2 0.00 0.00 0.00 70 1015.9
20260902231914 90 259 7.0 12.2 0.00 0.00 0.00 70 1015.9
20260902231413 90 232 7.0 12.2 0.00 0.00 0.00 69 1015.9
20260902230914 90 241 7.0 13.0 0.00 0.00 0.00 69 1015.9
20260902230416 90 241 7.0 13.0 0.00 0.00 0.00 69 1016.0
20260902225917 90 221 7.8 13.0 0.00 0.00 0.00 68 1016.0
20260902225414 90 229 7.0 13.9 0.00 0.00 0.00 68 1015.9
20260902224912 90 225 7.0 13.9 0.00 0.00 0.00 68 1016.0
20260902224413 91 214 9.6 15.6 0.00 0.00 0.00 67 1016.0
20260902224409 91 217 8.7 15.6 0.00 0.00 0.00 68 1015.9
20260902223410 91 228 8.7 14.8 0.00 0.00 0.00 67 1015.9
20260902222910 91 221 8.7 17.4 0.00 0.00 0.00 67 1015.9
20260902222410 91 238 7.0 17.4 0.00 0.00 0.00 67 1015.9
20260902222141 91 207 7.8 17.4 0.00 0.00 0.00 68 1015.9
20260902221409 91 232 9.6 17.4 0.00 0.00 0.00 66 1016.0
20260902220909 91 223 8.7 13.9 0.00 0.00 0.00 66 1015.9
20260902220405 91 225 7.8 13.9 0.00 0.00 0.00 66 1016.0
20260902220137 91 230 9.6 15.6 0.00 0.00 0.00 66 1016.0
20260902215406 91 235 8.7 15.6 0.00 0.00 0.00 64 1016.0
20260902214905 92 236 7.8 13.0 0.00 0.00 0.00 66 1016.0
20260902214405 91 236 8.7 13.0 0.00 0.00 0.00 65 1016.0
20260902213905 91 251 8.7 14.8 0.00 0.00 0.00 65 1016.0
20260902213405 91 241 9.6 14.8 0.00 0.00 0.00 64 1016.0
20260902212905 91 240 9.6 14.8 0.00 0.00 0.00 64 1016.0
20260902212406 91 232 7.8 14.8 0.00 0.00 0.00 64 1016.0
20260902211901 92 239 7.0 11.3 0.00 0.00 0.00 65 1016.0
20260902211401 92 221 7.8 14.8 0.00 0.00 0.00 65 1016.0
20260902210901 91 240 7.8 14.8 0.00 0.00 0.00 65 1016.1
20260902210401 92 236 7.8 14.8 0.00 0.00 0.00 63 1016.0
20260902205859 91 211 7.8 14.8 0.00 0.00 0.00 65 1016.1
20260902205359 92 217 8.7 13.9 0.00 0.00 0.00 63 1016.2
20260902204857 91 241 8.7 14.8 0.00 0.00 0.00 64 1016.2
20260902204354 91 225 7.8 14.8 0.00 0.00 0.00 64 1016.3
20260902203854 91 213 9.6 14.8 0.00 0.00 0.00 64 1016.3
20260902203351 91 228 9.6 14.8 0.00 0.00 0.00 64 1016.3
20260902202854 91 219 8.7 14.8 0.00 0.00 0.00 63 1016.4
20260902202850 91 238 8.7 14.8 0.00 0.00 0.00 63 1016.5
20260902201849 91 223 8.7 13.9 0.00 0.00 0.00 66 1016.6
20260902201618 92 236 8.7 15.6 0.00 0.00 0.00 63 1016.5
20260902200848 91 220 8.7 15.6 0.00 0.00 0.00 62 1016.6
20260902200347 91 208 9.6 15.6 0.00 0.00 0.00 63 1016.6
20260902195847 91 266 9.6 15.6 0.00 0.00 0.00 64 1016.6
20260902195618 91 247 8.7 16.5 0.00 0.00 0.00 63 1016.7
20260902194847 91 247 9.6 16.5 0.00 0.00 0.00 63 1016.7
20260902194353 91 248 9.6 18.2 0.00 0.00 0.00 60 1016.8
20260902194348 91 246 10.4 16.5 0.00 0.00 0.00 62 1016.7
20260902193617 92 238 9.6 18.2 0.00 0.00 0.00 59 1017.0
20260902192845 91 234 10.4 19.1 0.00 0.00 0.00 62 1016.9
20260902192343 91 214 10.4 19.1 0.00 0.00 0.00 64 1017.1
20260902191843 92 213 8.7 13.9 0.00 0.00 0.00 62 1017.1
20260902191344 91 215 8.7 15.6 0.00 0.00 0.00 64 1017.1
20260902190844 92 234 7.8 15.6 0.00 0.00 0.00 62 1017.3
20260902190343 91 207 7.0 13.0 0.00 0.00 0.00 66 1017.2
20260902185843 91 241 8.7 13.0 0.00 0.00 0.00 65 1017.3
20260902185337 91 263 9.6 13.0 0.00 0.00 0.00 64 1017.4
20260902184830 91 211 8.7 14.8 0.00 0.00 0.00 65 1017.5
20260902184555 91 227 7.8 14.8 0.00 0.00 0.00 66 1017.4
20260902183818 91 227 7.8 13.9 0.00 0.00 0.00 67 1017.5
20260902183313 91 259 7.8 13.9 0.00 0.00 0.00 67 1017.5
20260902182807 91 221 7.8 13.9 0.00 0.00 0.00 65 1017.5
20260902182301 90 236 8.7 13.9 0.00 0.00 0.00 66 1017.7
20260902181755 90 229 8.7 13.9 0.00 0.00 0.00 65 1017.7
20260902181249 90 200 7.0 13.9 0.00 0.00 0.00 65 1017.6
20260902180743 91 227 5.2 13.0 0.00 0.00 0.00 67 1017.6
20260902180236 90 247 6.1 10.4 0.00 0.00 0.00 67 1017.6
20260902175730 90 264 7.8 14.8 0.00 0.00 0.00 70 1017.7
20260902175224 90 259 7.8 14.8 0.00 0.00 0.00 67 1018.0
20260902174718 90 238 7.0 12.2 0.00 0.00 0.00 69 1017.8
20260902174444 90 274 7.0 12.2 0.00 0.00 0.00 68 1017.9
20260902173707 90 251 6.1 13.0 0.00 0.00 0.00 69 1017.9
20260902173201 90 211 6.1 13.0 0.00 0.00 0.00 69 1017.9
20260902172655 89 254 7.0 13.0 0.00 0.00 0.00 70 1018.2
20260902172149 89 250 7.0 13.0 0.00 0.00 0.00 68 1018.3
20260902171642 89 238 6.1 10.4 0.00 0.00 0.00 72 1018.2
20260902171136 89 247 6.1 10.4 0.00 0.00 0.00 69 1018.2
20260902170630 89 227 5.2 10.4 0.00 0.00 0.00 69 1018.3
20260902170125 89 217 6.1 9.6 0.00 0.00 0.00 71 1018.2
20260902165619 89 265 6.1 9.6 0.00 0.00 0.00 71 1018.4
20260902165113 89 239 6.1 11.3 0.00 0.00 0.00 70 1018.3
20260902164607 89 240 6.1 11.3 0.00 0.00 0.00 70 1018.4
20260902164332 88 224 6.1 11.3 0.00 0.00 0.00 71 1018.5
20260902163554 88 257 6.1 13.9 0.00 0.00 0.00 72 1018.6
20260902163048 88 262 7.0 13.9 0.00 0.00 0.00 72 1018.7
20260902162814 88 273 7.8 13.9 0.00 0.00 0.00 70 1018.7
20260902162041 87 239 7.8 12.2 0.00 0.00 0.00 71 1018.7
20260902162037 88 255 7.8 13.9 0.00 0.00 0.00 71 1018.7
20260902161035 87 298 7.0 11.3 0.00 0.00 0.00 70 1018.7
20260902160535 87 210 6.1 10.4 0.00 0.00 0.00 73 1018.8
20260902160036 87 228 7.0 10.4 0.00 0.00 0.00 74 1018.8
20260902155804 87 262 7.0 10.4 0.00 0.00 0.00 71 1018.7
20260902155033 87 269 6.1 9.6 0.00 0.00 0.00 74 1018.7
20260902154533 87 267 5.2 13.0 0.00 0.00 0.00 74 1018.6
20260902154033 87 259 5.2 13.0 0.00 0.00 0.00 75 1018.5
20260902153531 86 290 7.0 13.0 0.00 0.00 0.00 72 1018.5
20260902153303 86 242 7.8 13.9 0.00 0.00 0.00 73 1018.7
20260902152531 85 239 7.0 13.9 0.00 0.00 0.00 74 1018.5
20260902152031 85 259 7.8 13.9 0.00 0.00 0.00 75 1018.5
20260902151533 85 290 7.8 13.9 0.00 0.00 0.00 76 1018.4
20260902151033 85 266 7.0 12.2 0.00 0.00 0.00 74 1018.5
20260902150804 85 214 5.2 9.6 0.00 0.00 0.00 75 1018.5
20260902150033 85 304 5.2 8.7 0.00 0.00 0.00 76 1018.3
20260902145527 84 229 7.0 9.6 0.00 0.00 0.00 77 1018.3
20260902145027 84 261 6.1 12.2 0.00 0.00 0.00 76 1018.3
20260902144527 83 238 6.1 12.2 0.00 0.00 0.00 77 1018.3
20260902144026 83 235 7.0 12.2 0.00 0.00 0.00 78 1018.4
20260902143527 83 232 7.0 12.2 0.00 0.00 0.00 77 1018.6
20260902143027 83 287 7.0 12.2 0.00 0.00 0.00 77 1018.4
20260902142527 83 231 7.8 12.2 0.00 0.00 0.00 78 1018.5
20260902142027 83 225 7.0 11.3 0.00 0.00 0.00 79 1018.4
20260902141757 83 240 6.1 9.6 0.00 0.00 0.00 80 1018.7
20260902141258 83 244 7.0 9.6 0.00 0.00 0.00 80 1018.7
20260902140525 82 221 6.1 10.4 0.00 0.00 0.00 79 1018.5
20260902140025 82 238 6.1 10.4 0.00 0.00 0.00 80 1018.4
20260902135521 82 217 5.2 9.6 0.00 0.00 0.00 81 1018.4
20260902135020 81 246 6.1 10.4 0.00 0.00 0.00 81 1018.4
20260902134520 81 233 7.0 10.4 0.00 0.00 0.00 81 1018.6
20260902134020 81 261 6.1 10.4 0.00 0.00 0.00 81 1018.4
20260902133521 80 242 5.2 8.7 0.00 0.00 0.00 82 1018.5
20260902132521 80 240 5.2 9.6 0.00 0.02 0.00 83 1018.3
20260902132021 80 227 6.1 9.6 0.00 0.02 0.00 83 1018.4
20260902131521 79 227 5.2 8.7 0.00 0.02 0.00 83 1018.5
20260902131020 79 226 4.3 7.8 0.00 0.02 0.00 84 1018.3
20260902130520 79 223 5.2 7.8 0.00 0.02 0.00 84 1018.3
20260902130021 79 238 4.3 7.8 0.00 0.02 0.00 84 1018.3
20260902125520 79 222 4.3 7.8 0.00 0.02 0.00 84 1018.5
20260902125021 78 234 4.3 7.8 0.00 0.02 0.00 86 1018.6
20260902124521 78 234 4.3 7.8 0.00 0.02 0.00 86 1018.4
20260902124022 78 225 4.3 8.7 0.00 0.02 0.00 86 1018.4
20260902123521 78 229 4.3 8.7 0.00 0.02 0.00 86 1018.4
20260902123021 78 232 3.5 7.8 0.00 0.02 0.00 87 1018.6
20260902122524 77 248 3.5 6.1 0.00 0.02 0.00 87 1018.6
20260902122021 77 227 3.5 6.1 0.00 0.02 0.00 88 1018.6
20260902121521 77 234 2.6 6.1 0.00 0.02 0.00 88 1018.6
20260902121018 76 219 2.6 4.3 0.00 0.02 0.00 89 1018.4
20260902120518 76 213 1.7 4.3 0.00 0.02 0.00 89 1018.4
20260902120018 76 214 1.7 4.3 0.00 0.02 0.00 89 1018.4
20260902115516 76 211 1.7 4.3 0.00 0.02 0.00 90 1018.6
20260902115012 76 204 1.7 6.1 0.00 0.02 0.00 90 1018.4
20260902114512 75 204 1.7 6.1 0.00 0.02 0.00 90 1018.3
20260902114012 75 200 2.6 6.1 0.00 0.02 0.00 90 1018.3
20260902113512 75 197 2.6 6.1 0.00 0.02 0.00 90 1018.2
20260902113013 75 200 2.6 3.5 0.00 0.02 0.00 90 1018.3
20260902112513 75 198 2.6 3.5 0.00 0.02 0.00 90 1018.0
20260902112008 76 207 1.7 3.5 0.00 0.02 0.00 90 1018.2
20260902111508 76 206 1.7 3.5 0.00 0.02 0.00 90 1018.0
20260902111239 76 207 1.7 3.5 0.00 0.02 0.00 90 1018.0
20260902110502 76 200 1.7 3.5 0.00 0.02 0.00 89 1018.0
20260902105956 76 201 2.6 3.5 0.00 0.02 0.00 90 1018.2
20260902105450 76 202 2.6 3.5 0.00 0.02 0.00 89 1017.9
20260902105214 76 205 1.7 3.5 0.00 0.02 0.00 89 1017.9
20260902104437 76 205 1.7 3.5 0.00 0.02 0.00 89 1017.8
20260902103931 76 205 1.7 4.3 0.00 0.02 0.00 89 1017.9
20260902103656 76 205 1.7 4.3 0.00 0.02 0.00 89 1017.9
20260902102920 76 205 1.7 4.3 0.00 0.02 0.00 89 1017.8
20260902102414 77 205 1.7 4.3 0.00 0.02 0.00 88 1017.8
20260902101908 77 225 0.9 3.5 0.00 0.02 0.00 88 1017.7
20260902101632 77 225 0.9 3.5 0.00 0.02 0.00 88 1017.7
20260902100855 77 225 0.9 3.5 0.00 0.02 0.00 88 1017.7
20260902100349 77 229 0.9 3.5 0.00 0.02 0.00 88 1017.8
20260902095843 77 230 1.7 3.5 0.00 0.02 0.00 88 1017.7
20260902095337 77 232 1.7 3.5 0.00 0.02 0.00 88 1017.6
20260902094832 77 224 2.6 4.3 0.00 0.02 0.00 88 1017.5
20260902094325 77 225 2.6 4.3 0.00 0.02 0.00 88 1017.6
20260902093819 77 235 2.6 4.3 0.00 0.02 0.00 88 1017.6
20260902093313 77 235 1.7 4.3 0.00 0.02 0.00 88 1017.5
20260902092807 77 238 1.7 4.3 0.00 0.02 0.00 88 1017.6
20260902092803 78 238 2.6 4.3 0.00 0.02 0.00 88 1017.6
20260902091756 78 219 2.6 4.3 0.00 0.02 0.00 88 1017.7
20260902091250 78 232 2.6 4.3 0.00 0.02 0.00 88 1017.6
20260902090744 78 233 2.6 4.3 0.00 0.02 0.00 88 1017.7
20260902090508 78 223 2.6 4.3 0.00 0.02 0.00 88 1017.6
20260902085732 78 224 1.7 3.5 0.00 0.02 0.00 88 1017.6
20260902085225 78 217 1.7 3.5 0.00 0.02 0.00 88 1017.7
20260902084719 78 214 0.9 5.2 0.00 0.02 0.00 89 1017.8
20260902084214 78 231 1.7 5.2 0.00 0.02 0.00 89 1017.6
20260902083939 78 231 1.7 5.2 0.00 0.02 0.00 88 1017.5
20260902083201 78 207 2.6 6.1 0.00 0.02 0.00 89 1017.6
20260902082927 78 213 2.6 6.1 0.00 0.02 0.00 89 1017.6
20260902082149 78 211 3.5 6.1 0.00 0.02 0.00 89 1017.5
20260902081643 78 213 3.5 6.1 0.00 0.02 0.00 89 1017.7
20260902081138 78 209 2.6 4.3 0.00 0.02 0.00 89 1017.5
20260902080632 78 213 2.6 5.2 0.00 0.02 0.00 89 1017.4
20260902080126 78 213 2.6 5.2 0.00 0.02 0.00 89 1017.4
20260902075626 78 213 2.6 5.2 0.00 0.02 0.00 89 1017.4
20260902075124 78 219 1.7 5.2 0.00 0.02 0.00 89 1017.6
20260902074622 78 213 2.6 4.3 0.00 0.02 0.00 89 1017.5
20260902074122 78 211 2.6 4.3 0.00 0.02 0.00 89 1017.4
20260902073622 78 211 2.6 4.3 0.00 0.02 0.00 89 1017.5
20260902073120 78 213 1.7 4.3 0.00 0.02 0.00 89 1017.4
20260902072618 78 208 1.7 3.5 0.00 0.02 0.00 89 1017.3
20260902072122 78 204 3.5 5.2 0.00 0.02 0.00 88 1017.2
20260902072118 78 207 2.6 5.2 0.00 0.02 0.00 89 1017.5
20260902071118 78 212 2.6 5.2 0.00 0.02 0.00 88 1017.2
20260902070618 79 217 3.5 5.2 0.00 0.02 0.00 88 1017.3
20260902070116 79 208 2.6 5.2 0.00 0.02 0.00 88 1017.3
20260902065850 79 208 2.6 5.2 0.00 0.02 0.00 88 1017.5
20260902065615 79 208 3.5 5.2 0.00 0.02 0.00 88 1017.3
20260902064612 79 213 2.6 5.2 0.00 0.02 0.00 88 1017.3
20260902064114 79 217 2.6 5.2 0.00 0.02 0.00 88 1017.4
20260902063845 79 223 3.5 5.2 0.00 0.02 0.00 87 1017.4
20260902063106 79 213 3.5 5.2 0.00 0.02 0.00 87 1017.5
20260902062606 79 229 3.5 5.2 0.00 0.02 0.00 87 1017.5
20260902062106 79 218 3.5 5.2 0.00 0.02 0.00 87 1017.5
20260902061606 80 215 2.6 5.2 0.00 0.02 0.00 87 1017.6
20260902061106 80 212 2.6 5.2 0.00 0.02 0.00 87 1017.6
20260902060606 80 221 2.6 5.2 0.00 0.02 0.00 87 1017.5
20260902060105 80 221 3.5 5.2 0.00 0.02 0.00 87 1017.7
20260902055605 80 227 3.5 5.2 0.00 0.02 0.00 87 1017.6
20260902055105 80 219 3.5 6.1 0.00 0.02 0.00 87 1017.6
20260902054837 80 229 2.6 6.1 0.00 0.02 0.00 87 1017.6
20260902054106 80 236 2.6 6.1 0.00 0.02 0.00 87 1017.5
20260902053606 80 239 3.5 6.1 0.00 0.02 0.00 87 1017.6
20260902053102 80 240 3.5 6.1 0.00 0.02 0.00 87 1017.5
20260902052601 80 242 3.5 6.1 0.00 0.02 0.00 87 1017.4
20260902052102 80 227 3.5 7.0 0.00 0.02 0.00 87 1017.4
20260902051601 80 238 4.3 7.0 0.00 0.02 0.00 87 1017.4
20260902051101 80 233 4.3 7.8 0.00 0.02 0.00 87 1017.5
20260902050602 80 228 4.3 9.6 0.00 0.02 0.00 86 1017.4
20260902045601 80 238 4.3 9.6 0.00 0.02 0.00 86 1017.3
20260902045334 80 233 5.2 9.6 0.00 0.02 0.00 86 1017.3
20260902044601 80 255 5.2 7.8 0.00 0.02 0.00 86 1017.2
20260902044106 81 228 4.3 7.0 0.00 0.02 0.00 85 1017.1
20260902044102 81 235 4.3 7.8 0.00 0.02 0.00 86 1017.2
20260902043709 81 223 4.3 7.8 0.00 0.02 0.00 85 1017.0
20260902042601 81 216 4.3 7.8 0.00 0.02 0.00 85 1017.1
20260902042102 81 205 4.3 8.7 0.00 0.02 0.00 85 1017.0
20260902041832 81 221 4.3 8.7 0.00 0.02 0.00 85 1017.1
20260902041101 81 225 4.3 7.0 0.00 0.02 0.00 85 1017.1
20260902040833 81 219 4.3 7.8 0.00 0.02 0.00 84 1017.1
20260902040055 81 226 4.3 7.8 0.00 0.02 0.00 84 1017.1
20260902035548 82 207 4.3 8.7 0.00 0.02 0.02 84 1017.1
20260902035041 82 231 5.2 8.7 0.00 0.02 0.02 83 1017.3
20260902034812 82 226 5.2 9.6 0.00 0.02 0.02 83 1017.1
20260902034040 82 217 5.2 9.6 0.00 0.02 0.02 83 1017.1
20260902033541 82 218 4.3 7.8 0.00 0.02 0.02 83 1017.1
20260902033038 82 217 3.5 8.7 0.00 0.02 0.02 83 1017.1
20260902032536 82 229 3.5 8.7 0.00 0.02 0.02 83 1017.4
20260902032034 82 229 4.3 8.7 0.00 0.02 0.02 83 1017.2
20260902031805 82 199 5.2 9.6 0.00 0.02 0.02 82 1017.2
20260902031034 83 221 5.2 9.6 0.00 0.02 0.02 82 1017.3
20260902030534 83 223 6.1 9.6 0.00 0.02 0.02 82 1017.2
20260902030033 83 205 6.1 9.6 0.00 0.02 0.02 82 1017.3
20260902025530 83 232 6.1 10.4 0.00 0.02 0.02 82 1017.1
20260902025030 83 217 6.1 10.4 0.00 0.02 0.02 82 1017.1
20260902024531 83 229 6.1 9.6 0.00 0.02 0.02 82 1017.1
20260902024031 83 217 5.2 9.6 0.00 0.02 0.02 82 1017.3
20260902023529 83 221 4.3 8.7 0.00 0.02 0.02 82 1017.3
20260902023029 83 237 4.3 8.7 0.00 0.02 0.02 83 1017.3
20260902022531 83 215 5.2 8.7 0.00 0.02 0.02 83 1017.1
20260902022030 83 217 5.2 8.7 0.00 0.02 0.02 82 1017.1
20260902021754 83 217 3.5 7.0 0.00 0.02 0.02 82 1017.3
20260902021018 83 223 3.5 6.1 0.00 0.02 0.02 82 1017.3
20260902020515 83 217 3.5 5.2 0.00 0.02 0.02 83 1017.3
20260902020508 83 208 3.5 5.2 0.00 0.02 0.02 82 1017.1
20260902015500 84 204 3.5 5.2 0.00 0.02 0.02 82 1017.1
20260902014954 84 205 3.5 5.2 0.00 0.02 0.02 82 1017.1
20260902014448 84 201 3.5 6.1 0.00 0.02 0.02 81 1017.0
20260902013945 84 209 3.5 6.1 0.00 0.02 0.02 81 1017.1
20260902013938 84 213 3.5 5.2 0.00 0.02 0.02 81 1017.0
20260902012930 84 211 3.5 5.2 0.00 0.02 0.02 82 1017.1
20260902012424 84 209 2.6 5.2 0.00 0.02 0.02 82 1017.1
20260902012149 84 202 2.6 4.3 0.00 0.02 0.02 83 1017.1